Location: Salillas
(41.9950°N, 0.2228°W)
Time: 19:33:29
(UTC+00:00)

Cosmos 292 Rocket - Pass Details

Date: 29 March 2020
Orbit: 672 x 695 km, 74.0° (Epoch: 31 May)

Event Time Altitude Azimuth Distance (km) Brightness Sun altitude
Rises 20:12:02 0° 345° (NNW) 3,042 7.7 -20.2°
Reaches altitude 10° 20:14:24 10° 351° (N) 2,126 6.7 -20.6°
Maximum altitude 20:19:02 48° 66° (ENE) 890 4.0 -21.3°
Enters shadow 20:19:20 47° 79° (E) 898 4.0 -21.4°
